Flag for Taiwan Weather past 2 weeks in Taipei, Taiwan

Now
72 °F

Scattered clouds.


Feels Like: 76 °F
Forecast: 57 / 61 °F
Wind: 15 mph from East

Location: Sungshan / Taipei

Current Time: Jan 29, 2015 at 2:18:45 PM

Latest Report: Jan 29, 2015 at 2:00 PM


Visibility: N/A

Pressure: 30.04 "Hg

Humidity: 61%

Dew point: 57 °F

Location of TaipeiLocation

Historic Weather in Taipei — Graph

°F

Taipei temperature yesterday

Maximum temperature yesterday: 61 °F (at 1:00 PM)
Minimum temperature yesterday: 57 °F (at 3:00 AM)
Average temperature yesterday: 58 °F

Past Weeks' High & Low Weather Summary

 TemperatureHumidityPressure
High75 °F (Jan 24, 12:30 PM)94% (Jan 27, 3:00 AM)30.39 "Hg (Jan 27, 3:00 AM)
Low46 °F (Jan 23, 7:00 AM)35% (Jan 23, 2:00 PM)30.04 "Hg (Jan 21, 1:30 PM)
Average62 °F66%30.17 "Hg
* Reported Jan 14 1:00 PM — Jan 29 1:00 PM, Taipei, Weather by CustomWeather, © 2014

Note: Actual official high and low records may vary slightly from our data, if they occured in-between our weather recording intervals... More about our weather records

Advertising

Taipei weather history for previous 24 hours

 ConditionsComfort  
Time TempWeatherWind HumidityBarometerVisibility
1:00 PM
Jan 29
70 °FBroken clouds.14 mph69%30.07 "HgN/A
12:30 PM68 °FBroken clouds.10 mph73%30.07 "HgN/A
12:00 PM68 °FBroken clouds.14 mph73%30.09 "HgN/A
11:30 AM68 °FBroken clouds.13 mph73%30.09 "HgN/A
11:00 AM68 °FBroken clouds.15 mph73%30.09 "HgN/A
10:30 AM68 °FBroken clouds.15 mph73%30.12 "HgN/A
10:00 AM68 °FScattered clouds.13 mph73%30.12 "HgN/A
9:30 AM66 °FScattered clouds.10 mph78%30.12 "HgN/A
9:00 AM64 °FBroken clouds.10 mph78%30.12 "HgN/A
8:30 AM63 °FBroken clouds.9 mph83%30.12 "HgN/A
8:00 AM61 °FBroken clouds.9 mph83%30.12 "HgN/A
7:30 AM61 °FPartly sunny.10 mph83%30.12 "HgN/A
7:00 AM59 °FPartly sunny.10 mph88%30.12 "HgN/A
6:30 AM59 °FPassing clouds.13 mph88%30.12 "HgN/A
6:00 AM59 °FPassing clouds.12 mph88%30.12 "HgN/A
5:00 AM59 °FPassing clouds.13 mph88%30.12 "HgN/A
4:00 AM59 °FPassing clouds.13 mph82%30.12 "HgN/A
3:00 AM59 °FPassing clouds.13 mph82%30.12 "HgN/A
2:00 AM59 °FPassing clouds.14 mph82%30.12 "HgN/A
1:00 AM59 °FPassing clouds.13 mph82%30.12 "HgN/A
12:00 AM59 °FLight rain. Passing clouds.14 mph82%30.12 "HgN/A
11:30 PM
Jan 28
59 °FLight rain. Partly cloudy.14 mph82%30.15 "HgN/A
11:00 PM59 °FLight rain. Partly cloudy.16 mph82%30.15 "HgN/A
10:30 PM57 °FLight rain. Partly cloudy.15 mph88%30.15 "HgN/A
10:00 PM57 °FPassing clouds.15 mph88%30.15 "HgN/A
9:46 PM59 °FPassing clouds.14 mph82%30.15 "HgN/A
9:30 PM57 °FLight rain. Passing clouds.15 mph88%30.15 "Hg6 mi
9:00 PM57 °FLight rain. Passing clouds.15 mph88%30.15 "Hg6 mi
8:30 PM59 °FLight rain. Partly cloudy.15 mph82%30.15 "Hg5 mi
8:00 PM57 °FLight rain. Passing clouds.15 mph88%30.15 "Hg5 mi
7:30 PM59 °FLight rain. Passing clouds.14 mph82%30.15 "Hg5 mi
7:00 PM59 °FLight rain. Partly cloudy.14 mph82%30.12 "Hg5 mi
6:30 PM59 °FLight rain. Partly cloudy.13 mph82%30.12 "Hg5 mi
6:00 PM57 °FLight rain. Partly cloudy.14 mph88%30.12 "Hg4 mi
5:30 PM57 °FLight rain. Broken clouds.13 mph88%30.12 "Hg4 mi
5:00 PM59 °FLight rain. Broken clouds.15 mph82%30.12 "Hg5 mi
4:30 PM57 °FLight rain. Broken clouds.14 mph88%30.12 "Hg5 mi
4:00 PM59 °FLight rain. Broken clouds.14 mph82%30.12 "HgN/A
3:30 PM59 °FLight rain. Broken clouds.13 mph82%30.09 "HgN/A
3:00 PM59 °FDrizzle. Partly sunny.16 mph82%30.09 "HgN/A
2:30 PM59 °FLight rain. Partly sunny.14 mph82%30.09 "HgN/A
2:00 PM59 °FDrizzle. Partly sunny.15 mph82%30.09 "HgN/A
Weather by CustomWeather, © 2014

See weather overviewHow to use our weather pages